E0050 Weather Reports


Display with metric or nautical units.
time (UTC)temp
F
wind
direction
speed
MPH
gust
MPH
rain 1hr
in
rain 24hr
in
rain mn
in
humidity
%
barometer
mb
20260507094556 64 232 5.0 9.0 0.00 0.00 0.00 67 1013.3
20260507093024 64 274 6.0 10.0 0.00 0.00 0.00 68 1013.3
20260507091521 64 222 6.0 9.0 0.00 0.00 0.00 68 1013.3
20260507090055 64 229 5.0 11.0 0.00 0.00 0.00 69 1013.1
20260507084547 63 223 5.0 10.0 0.00 0.00 0.00 69 1013.0
20260507083015 63 219 5.0 9.0 0.00 0.00 0.00 70 1012.9
20260507081522 62 234 4.0 8.0 0.00 0.00 0.00 70 1012.9
20260507080047 62 230 5.0 8.0 0.00 0.00 0.00 71 1012.8
20260507074527 62 234 4.0 7.0 0.00 0.00 0.00 75 1012.9
20260507073048 61 231 3.0 7.0 0.00 0.00 0.00 80 1012.9
20260507071542 60 213 3.0 5.0 0.00 0.00 0.00 84 1012.7
20260507070018 59 220 2.0 6.0 0.00 0.00 0.00 87 1012.8
20260507064507 59 228 1.0 6.0 0.00 0.00 0.00 88 1012.6
20260507063037 59 254 2.0 4.0 0.00 0.00 0.00 89 1012.5
20260507061509 58 291 0.0 0.0 0.00 0.00 0.00 89 1012.4
20260507060039 57 291 0.0 0.0 0.00 0.00 0.00 90 1012.5
20260507054538 56 291 0.0 0.0 0.00 0.00 0.00 89 1012.5
20260507053105 54 291 0.0 0.0 0.00 0.00 0.00 89 1012.4
20260507051541 53 291 0.0 0.0 0.00 0.00 0.00 89 1012.1
20260507050023 53 291 0.0 0.0 0.00 0.00 0.00 88 1012.1
20260507044552 53 291 0.0 0.0 0.00 0.00 0.00 87 1011.9
20260507043014 53 291 0.0 0.0 0.00 0.01 0.00 87 1011.8
20260507041509 54 291 0.0 0.0 0.00 0.01 0.00 87 1011.8
20260507040041 54 291 0.0 0.0 0.00 0.01 0.00 86 1011.8
20260507034514 54 291 0.0 0.0 0.00 0.01 0.00 86 1011.8
20260507033051 55 291 0.0 0.0 0.00 0.01 0.00 86 1011.8
20260507031555 55 291 0.0 0.0 0.00 0.01 0.00 85 1011.9
20260507030005 56 291 0.0 0.0 0.00 0.01 0.00 85 1011.9
20260507024559 57 291 0.0 0.0 0.00 0.01 0.00 85 1011.8
20260507023028 57 291 0.0 0.0 0.00 0.01 0.01 85 1011.9
20260507021523 58 291 0.0 0.0 0.00 0.01 0.01 85 1011.8
20260507020050 58 291 1.0 3.0 0.00 0.01 0.01 84 1011.9
20260507014548 59 291 0.0 4.0 0.00 0.01 0.01 84 1011.9
20260507013001 59 294 1.0 3.0 0.00 0.01 0.01 84 1011.9
20260507011559 59 302 2.0 4.0 0.00 0.01 0.01 84 1012.0
20260507010032 60 323 1.0 5.0 0.00 0.01 0.01 84 1012.1
20260507004558 60 276 4.0 10.0 0.00 0.01 0.01 83 1012.2
20260507003026 60 266 4.0 8.0 0.00 0.33 0.01 83 1012.2
20260507001526 60 265 5.0 11.0 0.00 0.33 0.01 83 1012.4
20260507000053 60 256 6.0 13.0 0.00 0.33 0.01 83 1012.4
20260506234549 60 265 6.0 13.0 0.00 0.33 0.01 83 1012.6
20260506233017 60 236 8.0 12.0 0.00 0.34 0.01 82 1012.7
20260506231505 60 241 7.0 17.0 0.00 0.34 0.01 82 1012.6
20260506230034 60 246 7.0 17.0 0.00 0.34 0.01 82 1012.8
20260506224506 60 259 6.0 13.0 0.00 0.34 0.01 81 1012.7
20260506223036 60 258 7.0 15.0 0.00 0.34 0.01 81 1012.8
20260506221532 60 261 7.0 18.0 0.00 0.34 0.01 80 1012.8
20260506220106 59 279 4.0 13.0 0.00 0.34 0.01 80 1012.7
20260506214559 59 256 3.0 8.0 0.00 0.34 0.01 79 1012.7
20260506213027 58 322 2.0 5.0 0.00 0.34 0.01 79 1012.7
20260506211524 58 310 2.0 6.0 0.00 0.34 0.01 78 1012.7
20260506210055 58 283 2.0 4.0 0.00 0.34 0.01 77 1012.6
20260506204551 58 311 0.0 3.0 0.00 0.34 0.01 77 1012.6
20260506203017 59 308 1.0 4.0 0.00 0.34 0.01 76 1012.4
20260506201513 59 300 0.0 3.0 0.00 0.34 0.01 75 1012.2
20260506200040 60 300 1.0 3.0 0.00 0.34 0.01 74 1012.1
20260506194538 60 300 1.0 4.0 0.00 0.34 0.01 74 1011.9
20260506193107 61 283 2.0 8.0 0.00 0.34 0.01 74 1011.5
20260506191537 60 275 4.0 10.0 0.00 0.34 0.01 73 1011.3
20260506190005 60 262 5.0 12.0 0.00 0.34 0.01 73 1011.1
20260506184602 61 250 6.0 11.0 0.00 0.34 0.01 73 1010.9
20260506183027 61 267 6.0 11.0 0.00 0.34 0.01 72 1010.8
20260506181522 62 248 4.0 11.0 0.00 0.34 0.01 72 1010.7
20260506174550 62 256 5.0 13.0 0.00 0.34 0.01 71 1010.5
20260506173017 63 222 5.0 10.0 0.00 0.34 0.01 71 1010.2
20260506171513 63 208 6.0 12.0 0.00 0.34 0.01 70 1010.1
20260506170056 63 240 5.0 12.0 0.00 0.34 0.01 70 1010.2
20260506164539 63 259 7.0 13.0 0.00 0.34 0.01 70 1010.1
20260506163014 63 228 7.0 15.0 0.00 0.34 0.01 70 1010.2
20260506161503 63 246 6.0 13.0 0.00 0.34 0.01 70 1010.3
20260506160031 63 223 7.0 13.0 0.00 0.34 0.01 68 1010.4
20260506154527 64 261 6.0 11.0 0.00 0.34 0.01 68 1010.3
20260506153107 64 227 7.0 14.0 0.00 0.34 0.01 68 1010.3
20260506151532 63 296 6.0 14.0 0.00 0.34 0.01 68 1010.2
20260506144535 64 248 7.0 15.0 0.00 0.34 0.01 67 1010.5
20260506143004 64 264 9.0 16.0 0.00 0.34 0.01 67 1010.5
20260506141600 64 262 8.0 15.0 0.00 0.34 0.01 67 1010.5
20260506140029 65 222 9.0 16.0 0.00 0.34 0.01 67 1010.6
20260506134524 64 221 9.0 17.0 0.00 0.34 0.01 67 1010.7
20260506133055 64 220 7.0 14.0 0.00 0.34 0.01 68 1010.8
20260506131551 64 230 10.0 16.0 0.00 0.34 0.01 67 1010.9
20260506130020 64 253 8.0 13.0 0.00 0.34 0.01 68 1010.9
20260506124515 64 248 9.0 16.0 0.00 0.34 0.01 69 1011.0
20260506123046 63 229 8.0 16.0 0.00 0.34 0.01 70 1011.0
20260506121544 63 239 9.0 18.0 0.00 0.34 0.01 71 1011.0
20260506120007 63 229 8.0 21.0 0.00 0.34 0.01 70 1010.8
20260506114504 64 219 11.0 19.0 0.00 0.34 0.01 69 1010.8
20260506113035 64 259 9.0 18.0 0.00 0.34 0.01 70 1010.8
20260506111536 63 192 10.0 18.0 0.00 0.34 0.01 69 1010.9
20260506110105 63 267 11.0 16.0 0.00 0.34 0.01 70 1010.9
20260506104553 63 248 8.0 15.0 0.00 0.34 0.01 71 1010.9
20260506103021 63 257 8.0 17.0 0.00 0.34 0.01 72 1011.0
20260506101518 63 250 7.0 14.0 0.00 0.34 0.01 73 1011.0
20260506100048 62 259 8.0 16.0 0.00 0.34 0.01 74 1010.8